Time,TemperatureF,DewpointF,PressureIn,WindDirection,WindDirectionDegrees,WindSpeedMPH,WindSpeedGustMPH,Humidity,HourlyPrecipIn,Conditions,Clouds,dailyrainin,SoftwareType,DateUTC
2013-02-23 00:06:00,34.7,34.2,30.22,South,180,0.0,-999.0,98,-99.99,,,0.00,Acu-Link.com,2013-02-23 05:06:00,
2013-02-23 00:21:00,34.7,34.2,30.22,South,180,0.0,-999.0,98,-99.99,,,0.00,Acu-Link.com,2013-02-23 05:21:00,
2013-02-23 00:36:00,34.7,34.2,30.23,South,180,0.0,-999.0,98,-99.99,,,0.00,Acu-Link.com,2013-02-23 05:36:00,
2013-02-23 00:51:00,34.5,34.0,30.23,SSE,157,0.0,-999.0,98,-99.99,,,0.00,Acu-Link.com,2013-02-23 05:51:00,
2013-02-23 01:06:00,34.2,33.7,30.23,South,180,0.0,-999.0,98,-99.99,,,0.00,Acu-Link.com,2013-02-23 06:06:00,
2013-02-23 01:22:00,33.6,33.1,30.23,South,180,0.0,-999.0,98,-99.99,,,0.00,Acu-Link.com,2013-02-23 06:22:00,
2013-02-23 01:37:00,33.4,32.9,30.22,SSE,157,0.0,-999.0,98,-99.99,,,0.00,Acu-Link.com,2013-02-23 06:37:00,
2013-02-23 01:52:00,33.3,32.8,30.21,South,180,0.0,-999.0,98,-99.99,,,0.00,Acu-Link.com,2013-02-23 06:52:00,
2013-02-23 02:07:00,33.1,32.6,30.21,South,180,0.0,-999.0,98,-99.99,,,0.00,Acu-Link.com,2013-02-23 07:07:00,
2013-02-23 02:23:00,33.1,32.6,30.20,South,180,0.0,-999.0,98,-99.99,,,0.00,Acu-Link.com,2013-02-23 07:23:00,
2013-02-23 02:38:00,33.1,32.6,30.19,South,180,0.0,-999.0,98,-99.99,,,0.00,Acu-Link.com,2013-02-23 07:38:00,
2013-02-23 02:53:00,33.1,32.6,30.18,South,180,0.0,-999.0,98,-99.99,,,0.00,Acu-Link.com,2013-02-23 07:53:00,
2013-02-23 03:08:00,33.1,32.6,30.17,ESE,112,0.0,-999.0,98,-99.99,,,0.00,Acu-Link.com,2013-02-23 08:08:00,
2013-02-23 03:23:00,33.1,32.6,30.16,SSE,157,0.0,-999.0,98,-99.99,,,0.00,Acu-Link.com,2013-02-23 08:23:00,
2013-02-23 03:39:00,33.1,32.6,30.15,South,180,0.0,-999.0,98,-99.99,,,0.00,Acu-Link.com,2013-02-23 08:39:00,
2013-02-23 03:54:00,33.1,32.6,30.16,South,180,0.0,-999.0,98,-99.99,,,0.00,Acu-Link.com,2013-02-23 08:54:00,
2013-02-23 04:20:00,33.3,32.8,30.16,South,180,0.0,-999.0,98,-99.99,,,0.00,Acu-Link.com,2013-02-23 09:20:00,
2013-02-23 04:35:00,33.3,32.8,30.15,South,180,0.0,-999.0,98,-99.99,,,0.00,Acu-Link.com,2013-02-23 09:35:00,
2013-02-23 04:50:00,33.3,32.8,30.14,South,180,0.0,-999.0,98,-99.99,,,0.00,Acu-Link.com,2013-02-23 09:50:00,
2013-02-23 05:05:00,33.4,32.9,30.14,South,180,0.0,-999.0,98,-99.99,,,0.00,Acu-Link.com,2013-02-23 10:05:00,
2013-02-23 05:20:00,33.6,33.1,30.13,South,180,0.0,-999.0,98,-99.99,,,0.00,Acu-Link.com,2013-02-23 10:20:00,
2013-02-23 05:35:00,33.8,33.3,30.13,South,180,0.0,-999.0,98,-99.99,,,0.00,Acu-Link.com,2013-02-23 10:35:00,
2013-02-23 05:51:00,33.8,33.3,30.13,South,180,0.0,-999.0,98,-99.99,,,0.00,Acu-Link.com,2013-02-23 10:51:00,
2013-02-23 06:06:00,33.8,33.3,30.12,South,180,0.0,-999.0,98,-99.99,,,0.00,Acu-Link.com,2013-02-23 11:06:00,
2013-02-23 06:21:00,34.0,33.5,30.12,South,180,0.0,-999.0,98,-99.99,,,0.01,Acu-Link.com,2013-02-23 11:21:00,
2013-02-23 06:36:00,34.0,33.5,30.13,SSE,157,0.0,-999.0,98,-99.99,,,0.01,Acu-Link.com,2013-02-23 11:36:00,
2013-02-23 06:51:00,34.0,33.5,30.12,South,180,0.0,-999.0,98,-99.99,,,0.01,Acu-Link.com,2013-02-23 11:51:00,
2013-02-23 07:07:00,34.0,33.5,30.12,South,180,0.0,-999.0,98,-99.99,,,0.01,Acu-Link.com,2013-02-23 12:07:00,
2013-02-23 07:22:00,34.2,33.7,30.11,South,180,0.0,-999.0,98,-99.99,,,0.01,Acu-Link.com,2013-02-23 12:22:00,
2013-02-23 07:37:00,34.3,33.8,30.11,ESE,112,0.0,-999.0,98,-99.99,,,0.01,Acu-Link.com,2013-02-23 12:37:00,
2013-02-23 07:52:00,34.5,34.0,30.11,ESE,112,0.0,-999.0,98,-99.99,,,0.01,Acu-Link.com,2013-02-23 12:52:00,
2013-02-23 08:07:00,34.5,34.0,30.10,East,90,0.0,-999.0,98,-99.99,,,0.01,Acu-Link.com,2013-02-23 13:07:00,
2013-02-23 08:23:00,34.9,34.4,30.09,South,180,0.0,-999.0,98,-99.99,,,0.01,Acu-Link.com,2013-02-23 13:23:00,
2013-02-23 08:38:00,35.1,34.6,30.10,SSW,202,0.0,-999.0,98,-99.99,,,0.01,Acu-Link.com,2013-02-23 13:38:00,
2013-02-23 08:53:00,35.4,34.9,30.09,SSW,202,0.0,-999.0,98,-99.99,,,0.01,Acu-Link.com,2013-02-23 13:53:00,
2013-02-23 09:08:00,35.4,34.9,30.08,SE,135,0.0,-999.0,98,-99.99,,,0.01,Acu-Link.com,2013-02-23 14:08:00,
2013-02-23 09:24:00,35.8,35.3,30.08,South,180,0.0,-999.0,98,-99.99,,,0.01,Acu-Link.com,2013-02-23 14:24:00,
2013-02-23 09:39:00,36.0,35.5,30.07,East,90,0.0,-999.0,98,-99.99,,,0.01,Acu-Link.com,2013-02-23 14:39:00,
2013-02-23 09:54:00,36.1,35.6,30.06,SSE,157,0.0,-999.0,98,-99.99,,,0.01,Acu-Link.com,2013-02-23 14:54:00,
2013-02-23 10:09:00,36.5,36.0,30.05,SE,135,0.0,-999.0,98,-99.99,,,0.01,Acu-Link.com,2013-02-23 15:09:00,
2013-02-23 10:24:00,36.7,36.2,30.04,South,180,0.0,-999.0,98,-99.99,,,0.01,Acu-Link.com,2013-02-23 15:24:00,
2013-02-23 10:40:00,37.0,36.5,30.04,South,180,0.0,-999.0,98,-99.99,,,0.01,Acu-Link.com,2013-02-23 15:40:00,
2013-02-23 10:55:00,37.2,36.7,30.04,South,180,0.0,-999.0,98,-99.99,,,0.01,Acu-Link.com,2013-02-23 15:55:00,
2013-02-23 11:10:00,37.4,36.9,30.04,SSW,202,0.0,-999.0,98,-99.99,,,0.02,Acu-Link.com,2013-02-23 16:10:00,
2013-02-23 11:25:00,38.3,37.8,30.03,South,180,0.0,-999.0,98,-99.99,,,0.02,Acu-Link.com,2013-02-23 16:25:00,
2013-02-23 11:40:00,38.7,38.1,30.01,West,270,0.0,-999.0,98,-99.99,,,0.04,Acu-Link.com,2013-02-23 16:40:00,
2013-02-23 11:56:00,39.0,38.5,30.00,SSW,202,0.0,-999.0,98,-99.99,,,0.04,Acu-Link.com,2013-02-23 16:56:00,
2013-02-23 12:11:00,39.4,38.9,29.99,SSW,202,0.0,-999.0,98,-99.99,,,0.04,Acu-Link.com,2013-02-23 17:11:00,
2013-02-23 12:26:00,39.6,39.0,29.98,WSW,247,0.0,-999.0,98,-99.99,,,0.05,Acu-Link.com,2013-02-23 17:26:00,
2013-02-23 12:41:00,39.7,39.2,29.98,SSW,202,0.0,-999.0,98,-99.99,,,0.05,Acu-Link.com,2013-02-23 17:41:00,
2013-02-23 12:57:00,40.3,39.8,29.96,South,180,0.0,-999.0,98,-99.99,,,0.05,Acu-Link.com,2013-02-23 17:57:00,
2013-02-23 13:12:00,40.3,39.8,29.96,ESE,112,0.0,-999.0,98,-99.99,,,0.05,Acu-Link.com,2013-02-23 18:12:00,
2013-02-23 13:27:00,40.3,39.8,29.96,ESE,112,0.0,-999.0,98,-99.99,,,0.06,Acu-Link.com,2013-02-23 18:27:00,
2013-02-23 13:42:00,40.3,39.8,29.95,South,180,0.0,-999.0,98,-99.99,,,0.06,Acu-Link.com,2013-02-23 18:42:00,
2013-02-23 13:57:00,40.5,39.9,29.94,SSW,202,0.0,-999.0,98,-99.99,,,0.06,Acu-Link.com,2013-02-23 18:57:00,
2013-02-23 14:13:00,40.6,40.1,29.94,SSW,202,0.0,-999.0,98,-99.99,,,0.07,Acu-Link.com,2013-02-23 19:13:00,
2013-02-23 14:28:00,40.8,40.3,29.93,SSW,202,0.0,-999.0,98,-99.99,,,0.08,Acu-Link.com,2013-02-23 19:28:00,
2013-02-23 14:43:00,40.8,40.3,29.93,SSW,202,0.0,-999.0,98,-99.99,,,0.09,Acu-Link.com,2013-02-23 19:43:00,
2013-02-23 14:58:00,40.8,40.3,29.93,South,180,0.0,-999.0,98,-99.99,,,0.09,Acu-Link.com,2013-02-23 19:58:00,
2013-02-23 15:13:00,40.8,40.3,29.93,East,90,0.0,-999.0,98,-99.99,,,0.11,Acu-Link.com,2013-02-23 20:13:00,
2013-02-23 15:29:00,40.6,40.1,29.92,ESE,112,0.0,-999.0,98,-99.99,,,0.12,Acu-Link.com,2013-02-23 20:29:00,
2013-02-23 15:44:00,40.6,40.1,29.92,East,90,1.6,-999.0,98,-99.99,,,0.13,Acu-Link.com,2013-02-23 20:44:00,
2013-02-23 15:59:00,40.5,39.9,29.91,SSW,202,0.0,-999.0,98,-99.99,,,0.14,Acu-Link.com,2013-02-23 20:59:00,
2013-02-23 16:14:00,40.3,39.8,29.91,ESE,112,0.0,-999.0,98,-99.99,,,0.14,Acu-Link.com,2013-02-23 21:14:00,
2013-02-23 16:30:00,40.1,39.6,29.91,SSW,202,0.0,-999.0,98,-99.99,,,0.14,Acu-Link.com,2013-02-23 21:30:00,
2013-02-23 16:45:00,39.9,39.4,29.91,ENE,67,3.1,-999.0,98,-99.99,,,0.15,Acu-Link.com,2013-02-23 21:45:00,
2013-02-23 17:00:00,39.6,39.0,29.90,SSE,157,0.0,-999.0,98,-99.99,,,0.15,Acu-Link.com,2013-02-23 22:00:00,
2013-02-23 17:15:00,39.4,38.9,29.90,SE,135,0.0,-999.0,98,-99.99,,,0.15,Acu-Link.com,2013-02-23 22:15:00,
2013-02-23 17:30:00,39.0,38.5,29.89,ESE,112,2.7,-999.0,98,-99.99,,,0.15,Acu-Link.com,2013-02-23 22:30:00,
2013-02-23 17:46:00,38.7,38.1,29.88,SSE,157,5.1,-999.0,98,-99.99,,,0.15,Acu-Link.com,2013-02-23 22:46:00,
2013-02-23 18:01:00,38.1,37.6,29.89,SE,135,2.7,-999.0,98,-99.99,,,0.17,Acu-Link.com,2013-02-23 23:01:00,
2013-02-23 18:16:00,37.6,37.1,29.88,ESE,112,3.1,-999.0,98,-99.99,,,0.17,Acu-Link.com,2013-02-23 23:16:00,
2013-02-23 18:31:00,37.4,36.9,29.89,SE,135,0.0,-999.0,98,-99.99,,,0.17,Acu-Link.com,2013-02-23 23:31:00,
2013-02-23 18:46:00,37.0,36.5,29.89,South,180,3.8,-999.0,98,-99.99,,,0.17,Acu-Link.com,2013-02-23 23:46:00,
2013-02-23 19:02:00,37.0,36.5,29.89,NE,45,0.0,-999.0,98,-99.99,,,0.17,Acu-Link.com,2013-02-24 00:02:00,
2013-02-23 19:17:00,36.7,36.2,29.88,SSE,157,0.0,-999.0,98,-99.99,,,0.17,Acu-Link.com,2013-02-24 00:17:00,
2013-02-23 19:32:00,36.7,36.2,29.87,NNE,22,0.0,-999.0,98,-99.99,,,0.18,Acu-Link.com,2013-02-24 00:32:00,
2013-02-23 19:47:00,36.5,36.0,29.86,SSE,157,0.0,-999.0,98,-99.99,,,0.18,Acu-Link.com,2013-02-24 00:47:00,
2013-02-23 20:02:00,36.5,36.0,29.86,WSW,247,0.0,-999.0,98,-99.99,,,0.18,Acu-Link.com,2013-02-24 01:02:00,
2013-02-23 20:18:00,36.5,36.0,29.85,SW,225,0.0,-999.0,98,-99.99,,,0.18,Acu-Link.com,2013-02-24 01:18:00,
2013-02-23 20:33:00,36.5,36.0,29.85,ESE,112,0.0,-999.0,98,-99.99,,,0.19,Acu-Link.com,2013-02-24 01:33:00,
2013-02-23 20:48:00,36.3,35.8,29.85,South,180,0.0,-999.0,98,-99.99,,,0.19,Acu-Link.com,2013-02-24 01:48:00,
2013-02-23 21:03:00,36.3,35.8,29.85,WSW,247,0.0,-999.0,98,-99.99,,,0.19,Acu-Link.com,2013-02-24 02:03:00,
2013-02-23 21:19:00,36.3,35.8,29.83,ESE,112,0.0,-999.0,98,-99.99,,,0.19,Acu-Link.com,2013-02-24 02:19:00,
2013-02-23 21:34:00,36.3,35.8,29.83,SSE,157,2.2,-999.0,98,-99.99,,,0.19,Acu-Link.com,2013-02-24 02:34:00,
2013-02-23 21:49:00,36.3,35.8,29.82,ESE,112,0.0,-999.0,98,-99.99,,,0.19,Acu-Link.com,2013-02-24 02:49:00,
2013-02-23 22:05:00,36.1,35.6,29.80,SE,135,0.0,-999.0,98,-99.99,,,0.19,Acu-Link.com,2013-02-24 03:05:00,
2013-02-23 22:20:00,36.1,35.6,29.80,SSW,202,0.0,-999.0,98,-99.99,,,0.19,Acu-Link.com,2013-02-24 03:20:00,
2013-02-23 22:35:00,36.1,35.6,29.80,SE,135,0.0,-999.0,98,-99.99,,,0.20,Acu-Link.com,2013-02-24 03:35:00,
2013-02-23 22:50:00,36.1,35.6,29.80,WSW,247,0.0,-999.0,98,-99.99,,,0.20,Acu-Link.com,2013-02-24 03:50:00,
2013-02-23 23:05:00,36.1,35.6,29.78,North,0,0.0,-999.0,98,-99.99,,,0.20,Acu-Link.com,2013-02-24 04:05:00,
2013-02-23 23:21:00,36.1,35.6,29.78,SSW,202,0.0,-999.0,98,-99.99,,,0.20,Acu-Link.com,2013-02-24 04:21:00,
2013-02-23 23:36:00,36.1,35.6,29.78,East,90,0.0,-999.0,98,-99.99,,,0.20,Acu-Link.com,2013-02-24 04:36:00,
2013-02-23 23:51:00,36.1,35.6,29.77,SSE,157,1.1,-999.0,98,-99.99,,,0.20,Acu-Link.com,2013-02-24 04:51:00,